Lapse_Rate
5.3 6.5 6.5 6.5 6.5 6.5 6.5 6.5 6.5 6.5 6.5 6.5 6.5 6.5 6.5 4.8 5.3 4.8 4.6 4.6 4.7 4.7 4.2 3.4 2.9 2.2 1.7 1.2 0.4 0.1 0.1 -0.1 0.1 0.8 0.9 3.0 0.9 0.0 -0.4 -0.8 -1.3 -0.8 -1.1 -0.9
6.5 6.5 6.5 6.5 6.5 6.5 6.5 6.5 6.5 6.5 6.5 6.5 6.5 6.5 6.5 6.2 6.0 4.9 4.1 4.7 4.7 4.8 4.5 3.7 2.4 1.6 1.3 1.2 1.2 0.8 0.2 0.2 -0.2 0.4 1.1 1.4 0.7 -0.1 -0.7 -1.0 -1.0 -1.3 -1.3 -0.9
6.5 6.5 6.4 6.5 6.5 6.5 6.5 6.5 6.5 6.5 6.5 6.5 6.5 6.5 6.5 6.5 5.8 5.1 4.9 5.2 5.3 4.4 4.3 3.8 2.5 0.9 0.7 0.8 0.9 1.7 0.9 0.7 0.6 0.2 2.0 2.8 2.6 1.5 0.8 -0.4 -1.1 -1.7 -1.5 -0.5
6.5 6.5 6.5 6.5 6.5 6.5 6.5 6.5 6.5 6.5 6.5 6.5 6.5 6.5 6.5 6.5 6.5 6.2 4.9 4.2 4.2 3.9 3.8 3.5 2.6 1.5 0.9 0.9 0.8 1.4 1.4 0.5 0.7 0.4 0.4 1.3 1.3 1.1 1.5 1.1 1.0 0.4 -0.2 -0.6
6.5 6.5 6.5 6.5 6.5 6.5 6.5 6.5 6.5 6.5 6.5 6.5 6.5 6.5 6.5 6.5 6.5 6.5 4.9 3.6 3.4 3.2 2.9 2.7 2.4 2.2 2.4 1.2 0.4 -0.0 0.1 -0.1 0.1 -0.2 0.1 -0.1 0.4 1.0 1.1 1.1 1.0 0.9 0.8 0.2
6.5 6.3 6.5 6.5 6.5 6.5 6.5 6.5 6.5 6.5 6.5 6.5 6.5 6.5 6.5 6.5 6.5 6.5 5.8 3.4 3.3 2.6 2.5 2.8 3.3 2.6 2.0 1.2 0.7 0.3 0.0 -0.4 -0.9 -1.2 -1.5 -1.4 -1.1 -0.1 0.6 0.2 -0.2 -0.1 -0.1 -0.0
6.5 6.5 6.5 6.4 6.5 6.5 6.5 6.5 6.5 6.5 6.5 6.5 6.5 6.5 6.5 6.5 6.5 6.5 6.2 3.5 2.6 2.3 2.1 2.7 3.1 2.4 2.1 1.9 1.4 1.5 0.8 0.5 -0.3 -1.0 -1.8 -2.4 -1.9 -1.8 -1.5 -1.7 -0.8 -0.7 -0.7 -0.9
6.5 6.5 6.5 6.5 6.5 6.5 6.5 6.5 6.5 6.5 6.5 6.5 6.5 6.5 6.5 6.5 6.0 5.9 5.6 3.1 2.7 2.2 2.6 2.4 2.4 2.0 2.2 2.4 1.9 1.9 1.6 1.1 1.2 0.5 -0.1 -0.5 -0.7 -0.7 -0.6 -0.8 -0.7 -0.6 -0.4 -0.6
6.5 6.5 6.5 6.5 6.5 6.5 6.5 6.5 6.5 6.5 6.5 6.5 6.5 6.5 6.5 6.5 6.5 6.1 5.9 3.9 3.1 2.6 1.9 1.6 1.8 1.8 1.7 1.8 2.2 2.2 2.0 1.8 1.6 1.5 1.1 0.5 0.1 -0.0 0.0 0.5 0.7 0.7 0.8 2.1
6.5 6.5 6.5 6.5 6.4 6.5 6.5 6.5 6.5 6.5 6.5 6.5 6.5 6.5 6.5 6.5 6.5 6.5 6.1 4.7 3.5 2.5 1.9 1.4 1.3 1.7 1.4 1.9 2.3 2.3 2.6 2.5 2.6 2.4 2.4 2.0 1.4 1.3 1.2 1.0 1.1 1.3 1.7 2.0
6.5 6.5 6.5 6.5 6.5 6.5 6.5 6.5 6.5 6.5 6.5 6.5 6.5 6.5 6.5 6.5 6.5 6.5 5.4 3.2 2.1 1.5 1.0 0.5 0.5 1.2 1.7 1.9 2.2 2.6 2.8 2.8 2.9 3.1 3.1 3.2 2.9 3.0 3.2 2.9 2.8 2.3 2.3 2.3
6.5 6.5 6.5 6.5 6.5 6.5 6.5 6.5 6.5 6.5 6.5 6.5 6.5 6.5 6.5 6.5 6.1 6.1 5.0 4.5 3.8 2.3 0.7 -0.3 0.3 0.5 0.7 1.4 2.0 2.7 3.3 3.7 4.2 4.3 3.9 4.2 4.2 4.1 4.0 4.2 5.0 4.1 3.0 3.2
6.5 6.5 6.5 6.5 6.5 6.5 6.5 6.5 6.5 6.5 6.5 6.5 6.5 6.5 6.5 6.0 5.7 5.0 4.8 3.8 3.2 3.4 1.5 -0.3 0.4 0.9 1.1 1.7 2.3 3.0 4.2 4.4 5.2 5.3 5.3 5.0 5.0 5.4 5.0 5.6 5.9 5.5 3.9 3.5
5.9 6.5 6.5 6.5 6.5 6.5 6.5 6.5 6.5 6.5 6.5 6.5 6.5 6.5 6.5 6.5 6.5 6.0 4.9 4.3 4.5 4.5 2.8 0.5 0.8 1.4 1.9 2.5 3.3 3.9 4.6 5.0 4.7 4.0 5.3 5.3 5.4 6.0 5.7 6.1 4.7 4.3 4.3 4.3
6.4 6.5 6.5 6.5 6.5 6.5 6.5 6.5 6.5 6.5 6.5 6.5 6.5 6.5 6.5 6.5 6.5 6.0 6.3 6.0 5.5 5.3 4.9 2.5 1.7 1.9 2.4 3.2 3.5 4.5 4.3 4.6 5.9 5.9 7.4 7.1 7.1 6.2 6.4 5.2 4.9 4.7 4.6 4.7
6.4 6.5 6.5 6.5 6.5 6.5 6.5 6.5 6.5 6.5 6.5 6.5 6.5 6.5 6.5 5.2 5.1 4.9 4.5 5.2 5.4 4.6 4.8 3.8 3.0 2.2 2.5 2.9 3.3 3.9 3.4 3.7 3.7 5.9 4.7 4.2 6.4 7.0 6.6 6.9 5.4 4.8 4.6 4.6
6.5 6.5 6.5 6.5 6.5 6.5 6.5 6.5 6.5 6.5 6.5 6.5 6.5 6.5 6.4 6.5 6.4 6.0 5.4 5.1 5.2 5.4 5.1 4.5 3.2 2.2 2.8 3.4 3.6 3.8 4.3 4.3 4.1 4.8 4.8 4.1 5.3 6.3 6.7 7.0 5.4 4.7 4.5 4.3
6.5 6.5 6.5 6.5 6.5 6.5 6.5 6.5 6.5 6.5 6.5 6.5 6.5 6.5 6.5 6.4 6.1 4.4 5.0 5.2 5.4 5.1 4.5 3.1 2.1 2.2 3.0 3.6 4.5 3.6 4.2 4.8 5.3 4.9 4.6 5.0 6.0 6.5 6.9 5.4 4.9 4.5 4.3 4.1
6.4 6.5 6.5 6.5 6.5 6.5 6.5 6.5 6.5 6.5 6.5 6.5 6.5 6.5 6.6 6.2 5.8 5.7 5.7 5.5 4.9 4.6 3.5 2.6 2.9 3.1 3.5 3.8 3.8 4.5 5.4 5.5 5.7 5.6 5.0 5.8 7.0 6.7 5.5 5.1 4.3 4.2 3.9 3.7
6.5 6.5 6.5 6.5 6.5 6.5 6.5 6.5 5.8 6.4 6.5 6.7 6.6 6.6 6.6 6.2 6.5 6.5 5.1 5.1 4.4 4.8 4.4 3.6 3.6 4.0 4.0 4.1 4.7 5.3 5.6 5.7 5.6 5.0 5.2 6.8 6.6 5.8 5.3 5.0 4.7 4.8 4.4 5.1
6.5 6.5 6.5 6.5 6.5 6.5 6.5 6.4 6.2 6.5 6.5 6.6 6.4 6.6 6.6 6.5 6.5 4.9 6.4 5.3 4.9 4.7 4.7 4.4 4.4 4.2 4.4 4.6 5.0 5.5 5.7 5.3 5.1 6.3 7.1 6.6 6.1 5.5 5.6 5.1 4.9 4.8 4.6 4.6
6.5 6.5 6.5 6.5 6.5 6.5 6.0 6.4 6.5 6.5 6.2 6.4 6.1 6.5 7.0 7.1 6.6 5.1 4.9 5.0 5.3 5.1 5.2 4.9 4.8 4.6 4.8 4.9 5.0 5.3 5.2 5.5 6.5 6.4 6.1 5.8 5.2 5.6 6.3 5.6 5.5 5.8 4.2 4.1
6.5 6.5 6.5 6.5 6.5 6.1 4.5 5.7 5.3 5.2 6.0 5.8 6.1 7.3 7.3 7.1 6.4 5.2 5.3 5.2 4.6 4.2 4.9 5.2 4.9 5.1 5.3 5.0 4.8 5.2 6.4 6.0 5.5 5.0 4.8 4.7 4.9 5.6 5.6 6.1 5.9 5.8 4.5 3.5
6.5 6.1 6.5 6.5 6.4 6.6 5.6 5.0 4.4 4.9 5.6 5.6 6.5 6.8 7.2 6.6 5.3 4.7 5.1 5.1 4.5 4.8 5.0 4.8 5.0 5.3 5.4 5.6 6.9 5.9 6.0 5.3 5.0 4.4 4.1 4.3 4.3 5.4 4.8 5.7 5.4 4.7 2.6 3.0
6.2 6.4 6.5 6.5 6.4 6.4 5.8 4.9 5.4 5.0 4.6 6.0 4.3 4.8 6.0 5.2 4.7 4.8 4.8 5.1 5.1 5.2 4.8 4.9 5.2 6.3 6.0 5.5 5.5 5.5 5.6 4.8 4.6 4.4 4.2 3.8 5.0 4.1 3.9 4.7 3.5 4.6 4.7 6.6
5.9 6.5 6.5 6.5 5.9 6.0 5.8 5.0 5.0 4.9 4.6 5.9 5.6 4.9 4.4 4.8 4.6 4.7 4.2 4.3 4.5 4.5 5.3 5.5 5.5 5.6 4.9 4.8 4.8 5.0 4.8 4.8 4.2 4.0 4.4 2.9 2.8 1.7 3.7 2.7 2.4 6.0 7.6 9.0
Wind_Speed
3 7 3 4 2 3 5 4 5 4 2 4 5 9 12 6 7 7 6 6 5 5 4 5 5 6 9 13 13 14 15 17 12 8 5 4 6 7 8 12 20 18 19 21
6 2 2 4 4 3 5 4 4 6 5 6 6 11 6 6 3 5 7 6 6 4 4 5 6 6 7 8 11 13 15 16 13 9 5 4 3 5 8 12 17 20 20 20
5 2 3 2 4 6 4 2 3 6 7 4 6 5 1 1 4 4 4 4 5 6 4 2 3 5 6 7 8 10 12 13 13 15 8 4 3 5 6 9 8 16 19 19
3 1 3 4 1 3 5 3 2 5 5 3 4 4 3 3 5 6 7 7 6 6 4 3 2 3 5 5 6 8 9 11 12 14 10 11 8 7 6 6 6 8 17 18
4 2 3 2 2 1 8 8 8 4 1 3 4 3 6 3 4 7 9 8 7 7 7 6 5 4 3 4 5 6 6 8 10 10 10 8 10 6 5 5 8 8 9 16
2 1 1 2 5 4 6 6 5 3 3 2 3 4 5 4 4 1 2 7 9 8 7 6 5 6 4 3 4 4 5 6 6 7 8 7 7 6 6 7 5 5 5 7
5 1 1 1 4 5 8 6 4 5 3 4 4 1 8 4 2 2 5 8 9 8 7 7 7 5 4 3 3 4 5 6 6 6 6 6 6 6 6 4 6 7 6 7
3 7 1 2 1 2 3 3 3 4 3 5 3 5 4 3 3 3 3 8 7 7 6 7 8 6 6 5 4 4 5 5 5 6 6 5 6 4 4 5 4 5 5 4
5 5 1 0 0 2 3 4 2 1 3 1 4 6 1 1 3 3 3 7 8 7 8 9 8 7 6 5 4 4 5 5 5 5 4 5 5 6 5 6 5 5 5 7
1 5 3 1 1 1 1 2 3 2 4 5 5 6 4 2 4 5 6 8 8 8 9 8 8 7 6 6 4 4 5 5 4 5 4 4 5 5 5 5 6 6 6 9
0 2 6 2 2 4 1 0 1 2 4 3 4 6 5 4 2 4 7 9 9 9 10 9 7 7 7 6 5 4 4 5 4 4 5 5 5 5 5 5 5 5 6 7
2 2 4 7 3 2 1 3 4 3 5 3 3 7 6 6 5 1 6 6 6 7 7 8 9 9 8 7 6 5 4 4 3 4 5 5 5 7 7 7 7 10 7 9
3 1 4 5 1 2 2 2 3 3 2 9 4 6 2 5 7 6 6 7 7 8 5 7 8 9 8 7 6 6 5 4 4 5 6 6 5 5 5 6 6 7 6 6
5 3 6 7 7 4 7 5 7 7 5 6 14 17 17 16 6 4 6 6 7 8 5 7 8 8 7 7 7 6 5 6 6 3 3 3 3 3 3 4 4 5 6 5
5 6 7 13 14 11 17 21 17 12 16 11 22 14 21 11 2 5 2 3 6 6 1 7 9 8 7 7 7 7 8 5 4 3 3 3 3 4 3 4 4 4 4 5
3 4 2 4 12 14 16 20 19 17 18 19 22 23 9 6 4 6 6 5 6 8 8 6 7 8 8 8 8 8 7 4 2 0 5 5 5 6 5 5 5 4 4 4
6 4 1 7 2 5 13 13 6 5 5 6 8 2 3 3 4 5 4 5 6 7 7 1 6 7 8 9 7 7 6 4 2 0 2 4 6 6 6 6 5 6 6 5
6 5 2 4 3 5 6 2 6 9 0 3 6 3 1 3 4 4 5 5 6 6 6 8 8 10 9 6 7 7 4 2 1 2 3 4 5 4 4 4 4 5 4 4
11 6 3 3 5 11 10 2 2 2 2 3 1 4 2 5 5 3 5 6 5 7 8 9 9 9 7 5 5 4 1 1 0 1 3 5 4 4 4 4 5 5 4 4
2 2 6 3 4 6 1 1 4 2 5 3 5 4 6 8 7 1 4 5 6 7 7 7 6 6 6 4 4 2 2 1 2 3 5 4 4 4 4 4 4 3 4 5
3 2 9 10 7 8 2 2 2 2 3 0 2 4 6 4 2 0 4 7 6 5 6 5 5 5 4 4 3 3 2 3 3 5 3 4 5 4 4 4 3 4 4 5
8 7 4 3 5 9 3 0 5 1 2 3 2 4 5 5 2 4 4 4 3 4 4 4 4 4 3 4 4 4 3 3 3 4 5 4 4 5 5 5 4 4 5 5
3 6 4 8 5 3 4 3 5 4 2 3 3 6 5 6 1 4 3 3 3 3 3 3 3 2 3 3 1 3 2 3 3 4 4 4 5 6 6 5 5 3 4 3
3 2 2 2 3 3 3 6 6 3 2 3 4 6 5 2 3 4 4 3 3 2 3 2 3 3 2 0 3 2 3 3 3 4 4 4 4 4 4 4 4 2 2 3
2 3 3 7 1 5 4 5 2 3 3 2 6 6 5 4 4 4 3 3 3 2 2 1 1 2 2 3 3 4 4 3 3 4 4 3 4 4 4 4 2 3 4 5
5 2 3 3 2 2 2 3 3 3 2 4 4 4 5 4 5 3 3 2 2 1 2 2 3 3 3 3 3 4 3 3 3 3 3 4 2 2 4 3 4 12 13 14
Wind_Direction
359 61 35 337 320 244 276 270 292 298 235 315 246 266 269 192 179 176 169 150 140 114 117 66 35 9 9 12 7 7 3 356 360 5 1 12 34 30 33 29 28 25 22 22
28 70 296 291 314 281 316 289 333 298 318 316 281 284 317 143 149 174 182 170 151 112 77 52 35 16 18 3 5 8 10 5 3 1 1 14 6 35 37 30 33 28 26 23
124 242 309 306 17 5 334 108 304 262 321 305 321 331 122 96 89 117 153 162 150 154 139 69 44 29 20 16 7 8 12 11 8 4 7 15 46 39 32 29 29 28 26 30
97 256 344 332 88 47 312 196 306 299 30 304 69 286 305 177 205 218 201 192 183 160 143 140 81 43 31 23 20 12 14 21 15 9 19 25 43 49 17 22 26 29 29 27
279 347 2 338 294 69 250 306 285 222 218 8 317 59 272 127 267 254 219 204 190 184 173 176 167 140 74 50 51 38 25 32 26 22 22 33 38 23 14 16 24 28 25 33
286 13 152 242 286 221 294 317 5 81 95 7 236 116 279 210 201 285 182 186 182 184 178 167 162 142 131 90 92 72 54 37 36 31 26 33 42 27 24 19 19 15 15 20
335 267 266 295 327 358 14 19 349 1 8 240 218 28 248 225 162 148 190 189 189 188 173 166 165 160 149 120 98 100 66 51 48 45 36 29 25 26 34 16 15 17 16 17
7 332 248 347 105 279 314 105 118 301 299 285 278 242 265 46 55 13 345 184 182 188 183 180 178 169 157 136 107 88 77 70 61 55 41 33 30 23 33 22 13 22 9 8
6 282 21 350 34 88 332 53 180 263 289 349 259 281 302 303 285 276 227 171 203 200 197 190 181 171 158 142 124 121 104 87 84 88 73 52 45 40 32 25 16 23 9 16
335 297 263 183 88 30 109 221 30 22 322 296 292 289 235 274 268 237 251 239 232 218 205 195 181 167 159 146 127 98 97 89 76 70 56 70 69 59 47 31 23 25 18 12
314 143 293 23 203 197 31 27 194 196 165 235 296 267 214 202 163 232 257 241 234 226 213 192 173 158 150 142 137 128 102 91 71 73 60 48 37 39 33 36 20 13 16 15
207 183 270 250 324 331 148 166 150 140 273 247 222 267 284 173 131 53 296 319 295 255 226 174 162 158 155 153 147 138 120 90 63 67 65 41 40 36 25 22 18 15 13 14
186 265 310 313 5 352 78 220 220 233 209 227 223 258 185 122 60 29 54 22 8 350 207 151 149 163 163 156 146 134 117 95 68 61 65 42 32 35 36 19 10 8 6 10
129 221 194 250 257 279 289 251 234 245 244 268 232 272 282 292 340 29 35 14 347 333 218 159 158 170 160 150 141 125 103 66 58 66 84 75 26 19 19 18 1 355 356 359
176 224 223 247 266 272 268 277 269 236 243 246 272 265 273 301 96 65 37 334 331 333 341 181 172 172 153 140 127 115 95 77 44 54 56 44 24 14 9 2 354 345 351 351
194 263 289 252 255 250 267 267 262 250 252 248 257 268 319 59 45 356 351 3 350 346 325 203 172 151 140 131 114 110 104 95 121 234 30 359 350 2 359 352 348 353 355 349
174 198 221 271 39 301 279 251 229 211 206 213 224 172 21 350 324 312 341 15 354 332 318 201 106 104 110 112 115 117 115 97 76 5 14 8 345 350 352 347 351 355 347 347
187 159 183 277 2 248 244 268 227 215 123 347 102 96 32 336 289 79 32 32 10 343 29 64 85 90 91 86 85 81 100 127 72 42 10 345 331 331 336 339 347 340 336 337
220 165 214 239 226 290 285 231 199 238 210 25 112 24 357 314 267 121 46 63 49 50 61 73 84 88 87 86 83 99 109 67 11 62 352 320 319 320 326 337 339 329 331 327
55 225 193 164 235 252 212 10 34 28 255 47 17 328 342 347 328 31 20 76 66 64 80 86 84 87 82 68 62 67 72 20 41 10 310 306 320 317 322 325 328 323 328 329
142 201 221 226 247 276 181 156 88 163 292 102 342 354 333 321 317 67 96 75 70 76 87 84 77 82 78 62 39 59 37 34 341 294 319 324 320 323 325 348 324 326 335 343
173 176 196 205 236 267 106 45 183 114 91 14 27 349 320 312 269 118 108 96 92 87 76 83 90 90 77 60 37 31 19 339 334 351 340 339 351 340 334 330 332 343 344 344
220 208 192 191 216 78 30 42 63 20 19 28 340 320 327 322 174 136 134 115 103 82 62 61 81 101 107 70 13 329 333 5 355 341 336 336 335 334 341 340 334 330 340 328
269 10 242 0 47 84 124 82 66 47 36 47 18 354 350 25 106 109 122 110 88 80 71 49 56 45 23 34 7 351 345 357 346 343 337 327 332 337 336 332 321 315 298 296
190 122 196 258 299 128 80 73 101 72 44 85 57 22 358 101 78 93 96 98 87 81 24 27 317 305 45 16 8 345 355 6 344 328 320 348 326 323 322 333 293 307 284 277
187 211 212 265 84 18 113 119 123 121 91 44 99 60 18 68 95 96 91 86 93 45 284 358 10 1 353 343 336 347 13 356 333 313 330 312 291 307 321 311 305 311 315 318